Flag for U.S.A. Weather past 2 weeks in Anchorage, Alaska, U.S.A.

Now
52 °F

Mostly cloudy.


Feels Like: 52 °F
Forecast: 48 / 58 °F
Wind: No wind

Location: Lake Hood Seaplane

Current Time: May 25, 2015 at 2:35:04 AM

Latest Report: May 25, 2015 at 1:53 AM


Visibility: 10 mi

Pressure: 30.09 "Hg

Humidity: 72%

Dew point: 43 °F

Location of AnchorageLocation

Historic Weather in Anchorage — Graph

°F

Anchorage temperature yesterday

Maximum temperature yesterday: 58 °F (at 7:53 PM)
Minimum temperature yesterday: 48 °F (at 4:53 AM)
Average temperature yesterday: 52 °F

Past Weeks' High & Low Weather Summary

 TemperatureHumidityPressure
High65 °F (May 22, 3:53 PM)93% (May 23, 10:53 PM)30.25 "Hg (May 23, 10:53 PM)
Low41 °F (May 17, 4:53 AM)34% (May 12, 3:53 PM)29.78 "Hg (May 15, 4:53 PM)
Average52 °F62%30.06 "Hg
* Reported May 10 12:53 AM — May 25 12:53 AM, Anchorage, Weather by CustomWeather, © 2015

Note: Actual official high and low records may vary slightly from our data, if they occured in-between our weather recording intervals... More about our weather records

Advertising

Anchorage weather history for previous 24 hours

 ConditionsComfort  
Time TempWeatherWind HumidityBarometerVisibility
12:53 AM
Mon, May 25
52 °FPassing clouds.5 mph66%30.08 "Hg10 mi
11:53 PM
Sun, May 24
53 °FPartly sunny.No wind64%30.08 "Hg10 mi
10:53 PM54 °FBroken clouds.5 mph59%30.07 "Hg10 mi
9:53 PM55 °FMostly cloudy.7 mph59%30.07 "Hg10 mi
8:53 PM55 °FOvercast.3 mph62%30.07 "Hg10 mi
7:53 PM58 °FCloudy.6 mph67%30.07 "Hg10 mi
6:53 PM57 °FMore clouds than sun.3 mph69%30.08 "Hg10 mi
5:53 PM56 °FMore clouds than sun.3 mph67%30.09 "Hg10 mi
4:53 PM57 °FPartly sunny.3 mph69%30.09 "Hg10 mi
3:53 PM55 °FPartly sunny.5 mph69%30.11 "Hg10 mi
2:53 PM54 °FMostly cloudy.No wind74%30.12 "Hg10 mi
1:53 PM53 °FLight rain. Overcast.No wind77%30.13 "Hg6 mi
12:53 PM53 °FOvercast.No wind72%30.13 "Hg10 mi
11:53 AM52 °FOvercast.No wind75%30.13 "Hg10 mi
10:53 AM50 °FOvercast.6 mph80%30.13 "Hg9 mi
9:53 AM52 °FPartly sunny.No wind77%30.13 "Hg7 mi
8:53 AM49 °FOvercast.No wind84%30.14 "Hg10 mi
7:53 AM49 °FMostly cloudy.No wind84%30.14 "Hg10 mi
6:53 AM48 °FPartly sunny.No wind89%30.14 "Hg10 mi
5:53 AM48 °FMostly cloudy.5 mph89%30.14 "Hg10 mi
4:53 AM48 °FMostly cloudy.5 mph93%30.13 "Hg10 mi
3:53 AM50 °FPassing clouds.8 mph80%30.12 "Hg10 mi
2:53 AM50 °FOvercast.No wind86%30.11 "Hg10 mi
Weather by CustomWeather, © 2015

See weather overviewHow to use our weather pages